BAW56D EGKK-LPPT

Flight info

Callsign BAW56D
Flight time 2h 17m
Altitude 37000
Route IMVUR N63 SAM M195 LORKU DCT BALDA DCT ABUPI DCT XAMAX
Aircraft A320/M-SDE3FGHIRWY/LB1

Departure

Time 2026-05-04 12:19
Airport London Gatwick Airport (EGKK)

Arrival

Time 2026-05-04 14:36
Airport Lisbon Humberto Delgado Airport (LPPT)
Time Latitude Longitude Altitude Speed Heading
2026-05-04 11:20 51.15866 -0.16909 205 ft 0 kts 130°
2026-05-04 11:55 51.15908 -0.16991 217 ft 2 kts 130°
2026-05-04 11:55 51.15918 -0.17010 214 ft 3 kts 127°
2026-05-04 11:56 51.15926 -0.17027 208 ft 3 kts 141°
2026-05-04 11:56 51.15942 -0.17041 216 ft 3 kts 177°
2026-05-04 11:56 51.15958 -0.17038 211 ft 0 kts 207°
2026-05-04 11:59 51.15949 -0.17045 214 ft 3 kts 207°
2026-05-04 12:00 51.15915 -0.17059 211 ft 5 kts 187°
2026-05-04 12:00 51.15906 -0.17061 207 ft 0 kts 189°
2026-05-04 12:01 51.15905 -0.17062 207 ft 1 kts 189°
2026-05-04 12:01 51.15877 -0.17073 205 ft 7 kts 196°
2026-05-04 12:02 51.15694 -0.18005 207 ft 18 kts 258°
2026-05-04 12:03 51.15666 -0.18213 205 ft 20 kts 258°
2026-05-04 12:03 51.15607 -0.18355 207 ft 16 kts 176°
2026-05-04 12:03 51.15496 -0.18318 211 ft 17 kts 167°
2026-05-04 12:03 51.15375 -0.18276 205 ft 15 kts 168°
2026-05-04 12:04 51.15289 -0.18246 208 ft 8 kts 167°
2026-05-04 12:04 51.15270 -0.18239 205 ft 0 kts 167°
2026-05-04 12:05 51.15269 -0.18239 205 ft 1 kts 167°
2026-05-04 12:05 51.15249 -0.18232 205 ft 6 kts 167°
2026-05-04 12:05 51.15191 -0.18263 209 ft 13 kts 238°
2026-05-04 12:06 51.15172 -0.18431 215 ft 18 kts 258°
2026-05-04 12:06 51.15142 -0.18655 208 ft 23 kts 257°
2026-05-04 12:06 51.15110 -0.18891 208 ft 18 kts 258°
2026-05-04 12:06 51.15086 -0.19069 215 ft 15 kts 257°
2026-05-04 12:07 51.15057 -0.19250 214 ft 17 kts 233°
2026-05-04 12:07 51.14962 -0.19309 208 ft 15 kts 236°
2026-05-04 12:07 51.14937 -0.19480 209 ft 18 kts 257°
2026-05-04 12:07 51.14908 -0.19688 210 ft 20 kts 258°
2026-05-04 12:08 51.14876 -0.19927 205 ft 24 kts 256°
2026-05-04 12:08 51.14836 -0.20201 208 ft 26 kts 258°
2026-05-04 12:08 51.14806 -0.20425 206 ft 18 kts 258°
2026-05-04 12:08 51.14780 -0.20617 209 ft 19 kts 257°
2026-05-04 12:09 51.14748 -0.20826 208 ft 18 kts 260°
2026-05-04 12:09 51.14728 -0.20985 209 ft 11 kts 257°
2026-05-04 12:09 51.14715 -0.21080 205 ft 4 kts 258°
2026-05-04 12:09 51.14714 -0.21084 205 ft 0 kts 257°
2026-05-04 12:12 51.14714 -0.21090 205 ft 2 kts 257°
2026-05-04 12:12 51.14709 -0.21124 211 ft 3 kts 257°
2026-05-04 12:13 51.14706 -0.21143 209 ft 0 kts 257°
2026-05-04 12:14 51.14632 -0.21335 205 ft 9 kts 167°
2026-05-04 12:15 51.14623 -0.21332 205 ft 0 kts 167°
2026-05-04 12:15 51.14622 -0.21332 205 ft 1 kts 167°
2026-05-04 12:15 51.14597 -0.21322 209 ft 7 kts 167°
2026-05-04 12:16 51.14541 -0.21271 212 ft 12 kts 133°
2026-05-04 12:16 51.14526 -0.21129 214 ft 12 kts 74°
2026-05-04 12:16 51.14529 -0.21112 212 ft 0 kts 76°
2026-05-04 12:18 51.14532 -0.21094 209 ft 11 kts 76°
2026-05-04 12:18 51.14601 -0.20586 216 ft 80 kts 77°
2026-05-04 12:18 51.14761 -0.19426 212 ft 132 kts 78°
2026-05-04 12:18 51.14990 -0.17792 265 ft 169 kts 77°
2026-05-04 12:19 51.15251 -0.15915 843 ft 174 kts 77°
2026-05-04 12:19 51.15495 -0.14013 1503 ft 180 kts 78°
2026-05-04 12:19 51.15729 -0.12042 2153 ft 180 kts 79°
2026-05-04 12:19 51.15943 -0.10087 2783 ft 178 kts 80°
2026-05-04 12:20 51.16246 -0.08188 3340 ft 177 kts 66°
2026-05-04 12:20 51.16884 -0.06515 3880 ft 178 kts 49°
2026-05-04 12:20 51.17816 -0.05223 4411 ft 179 kts 31°
2026-05-04 12:20 51.18955 -0.04441 4938 ft 179 kts 13°
2026-05-04 12:21 51.20207 -0.04267 5380 ft 185 kts 354°
2026-05-04 12:21 51.21488 -0.04743 5779 ft 193 kts 336°
2026-05-04 12:21 51.22587 -0.05978 6206 ft 198 kts 301°
2026-05-04 12:21 51.22960 -0.08062 6665 ft 200 kts 268°
2026-05-04 12:22 51.22772 -0.10314 7038 ft 211 kts 253°
2026-05-04 12:22 51.22343 -0.12597 7348 ft 226 kts 255°
2026-05-04 12:22 51.21997 -0.15177 7602 ft 251 kts 259°
2026-05-04 12:22 51.21690 -0.18048 7958 ft 272 kts 260°
2026-05-04 12:23 51.21386 -0.21047 8024 ft 275 kts 260°
2026-05-04 12:23 51.21075 -0.24065 8036 ft 275 kts 259°
2026-05-04 12:23 51.20754 -0.27063 8029 ft 276 kts 259°
2026-05-04 12:23 51.20419 -0.30083 8025 ft 276 kts 259°
2026-05-04 12:24 51.20076 -0.33090 8029 ft 276 kts 258°
2026-05-04 12:24 51.19721 -0.36104 8035 ft 276 kts 258°
2026-05-04 12:24 51.19341 -0.39105 8025 ft 276 kts 257°
2026-05-04 12:24 51.18948 -0.42092 8023 ft 276 kts 257°
2026-05-04 12:25 51.18547 -0.45093 8022 ft 276 kts 257°
2026-05-04 12:25 51.18155 -0.48040 8020 ft 276 kts 257°
2026-05-04 12:25 51.17755 -0.51045 8021 ft 277 kts 257°
2026-05-04 12:25 51.17247 -0.54019 8518 ft 279 kts 246°
2026-05-04 12:26 51.16487 -0.56861 9386 ft 280 kts 246°
2026-05-04 12:26 51.15725 -0.59725 10182 ft 282 kts 246°
2026-05-04 12:26 51.14936 -0.62699 10484 ft 303 kts 246°
2026-05-04 12:26 51.14085 -0.65905 10655 ft 325 kts 246°
2026-05-04 12:27 51.13188 -0.69282 11111 ft 335 kts 246°
2026-05-04 12:27 51.12269 -0.72733 11755 ft 340 kts 246°
2026-05-04 12:27 51.11342 -0.76202 12388 ft 343 kts 246°
2026-05-04 12:27 51.10401 -0.79713 13037 ft 346 kts 245°
2026-05-04 12:28 51.09458 -0.83229 13686 ft 350 kts 245°
2026-05-04 12:28 51.08531 -0.86674 14263 ft 353 kts 245°
2026-05-04 12:28 51.07556 -0.90280 14835 ft 356 kts 245°
2026-05-04 12:28 51.06591 -0.93851 15389 ft 359 kts 245°
2026-05-04 12:29 51.05598 -0.97525 15939 ft 362 kts 245°
2026-05-04 12:29 51.04603 -1.01210 16475 ft 365 kts 245°
2026-05-04 12:29 51.03597 -1.04932 17030 ft 368 kts 245°
2026-05-04 12:29 51.02579 -1.08682 17565 ft 371 kts 244°
2026-05-04 12:30 51.01547 -1.12467 18122 ft 375 kts 244°
2026-05-04 12:30 51.00508 -1.16282 18630 ft 378 kts 244°
2026-05-04 12:30 50.99475 -1.20066 19140 ft 380 kts 244°
2026-05-04 12:30 50.98419 -1.23926 19655 ft 382 kts 244°
2026-05-04 12:31 50.97358 -1.27802 20186 ft 384 kts 244°
2026-05-04 12:31 50.96130 -1.31571 20690 ft 385 kts 235°
2026-05-04 12:31 50.94487 -1.34901 21178 ft 385 kts 225°
2026-05-04 12:31 50.92475 -1.37689 21657 ft 386 kts 214°
2026-05-04 12:32 50.90226 -1.40037 22137 ft 387 kts 212°
2026-05-04 12:32 50.85695 -1.44729 23106 ft 391 kts 213°
2026-05-04 12:32 50.83405 -1.47110 23551 ft 393 kts 213°
2026-05-04 12:33 50.81113 -1.49494 23950 ft 395 kts 213°
2026-05-04 12:33 50.78845 -1.51850 24347 ft 396 kts 213°
2026-05-04 12:33 50.76533 -1.54246 24729 ft 398 kts 212°
2026-05-04 12:33 50.74220 -1.56635 25137 ft 399 kts 212°
2026-05-04 12:34 50.71894 -1.59032 25523 ft 400 kts 212°
2026-05-04 12:34 50.69561 -1.61434 25899 ft 401 kts 212°
2026-05-04 12:34 50.67227 -1.63839 26275 ft 402 kts 212°
2026-05-04 12:34 50.64872 -1.66265 26643 ft 404 kts 212°
2026-05-04 12:35 50.62523 -1.68679 27017 ft 405 kts 211°
2026-05-04 12:35 50.60155 -1.71109 27392 ft 407 kts 211°
2026-05-04 12:35 50.57812 -1.73513 27764 ft 408 kts 211°
2026-05-04 12:35 50.55429 -1.75953 28138 ft 409 kts 211°
2026-05-04 12:36 50.53039 -1.78398 28502 ft 411 kts 211°
2026-05-04 12:36 50.50643 -1.80844 28955 ft 409 kts 211°
2026-05-04 12:36 50.48263 -1.83274 29447 ft 408 kts 211°
2026-05-04 12:36 50.45896 -1.85696 29957 ft 406 kts 211°
2026-05-04 12:37 50.43536 -1.88107 30406 ft 404 kts 211°
2026-05-04 12:37 50.41174 -1.90509 30777 ft 404 kts 211°
2026-05-04 12:37 50.38811 -1.92905 31117 ft 405 kts 211°
2026-05-04 12:37 50.36475 -1.95268 31450 ft 406 kts 211°
2026-05-04 12:38 50.34099 -1.97669 31794 ft 407 kts 211°
2026-05-04 12:38 50.31716 -2.00076 32142 ft 408 kts 211°
2026-05-04 12:38 50.29331 -2.02485 32477 ft 408 kts 211°
2026-05-04 12:38 50.26947 -2.04893 32829 ft 409 kts 211°
2026-05-04 12:39 50.24551 -2.07307 33176 ft 410 kts 211°
2026-05-04 12:39 50.22143 -2.09703 33508 ft 411 kts 210°
2026-05-04 12:39 50.19715 -2.12078 33847 ft 412 kts 210°
2026-05-04 12:39 50.17279 -2.14442 34135 ft 413 kts 210°
2026-05-04 12:40 50.14835 -2.16804 34393 ft 414 kts 210°
2026-05-04 12:40 50.12419 -2.19138 34645 ft 414 kts 210°
2026-05-04 12:40 50.09969 -2.21507 34901 ft 415 kts 210°
2026-05-04 12:40 50.07519 -2.23880 35157 ft 415 kts 210°
2026-05-04 12:41 50.05061 -2.26260 35403 ft 416 kts 210°
2026-05-04 12:41 50.02600 -2.28639 35647 ft 416 kts 210°
2026-05-04 12:41 50.00139 -2.31012 35890 ft 417 kts 210°
2026-05-04 12:41 49.97673 -2.33389 36124 ft 417 kts 211°
2026-05-04 12:42 49.95210 -2.35765 36356 ft 418 kts 211°
2026-05-04 12:42 49.92652 -2.37901 36579 ft 417 kts 202°
2026-05-04 12:42 49.89986 -2.39686 36788 ft 418 kts 202°
2026-05-04 12:42 49.87351 -2.41438 36979 ft 419 kts 202°
2026-05-04 12:43 49.84667 -2.43218 37025 ft 422 kts 202°
2026-05-04 12:43 49.79193 -2.46833 37030 ft 432 kts 202°
2026-05-04 12:44 49.73643 -2.50496 37029 ft 434 kts 202°
2026-05-04 12:44 49.68083 -2.54167 37028 ft 435 kts 202°
2026-05-04 12:45 49.62560 -2.57816 37028 ft 435 kts 202°
2026-05-04 12:45 49.56992 -2.61482 37034 ft 435 kts 202°
2026-05-04 12:46 49.51418 -2.65126 37038 ft 435 kts 202°
2026-05-04 12:46 49.45839 -2.68775 37042 ft 435 kts 202°
2026-05-04 12:47 49.40301 -2.72389 37046 ft 436 kts 202°
2026-05-04 12:47 49.34718 -2.76029 37049 ft 436 kts 202°
2026-05-04 12:48 49.29143 -2.79640 37042 ft 436 kts 202°
2026-05-04 12:48 49.24501 -2.82648 37038 ft 436 kts 202°
2026-05-04 12:49 49.18009 -2.86837 37040 ft 436 kts 202°
2026-05-04 12:49 49.12428 -2.90434 37036 ft 436 kts 202°
2026-05-04 12:50 49.06843 -2.94026 37039 ft 435 kts 202°
2026-05-04 12:50 49.02204 -2.97007 37033 ft 435 kts 202°
2026-05-04 12:51 48.96623 -3.00577 37037 ft 435 kts 202°
2026-05-04 12:51 48.91036 -3.04137 37029 ft 435 kts 202°
2026-05-04 12:52 48.85449 -3.07692 37022 ft 435 kts 202°
2026-05-04 12:52 48.79897 -3.11216 37019 ft 435 kts 202°
2026-05-04 12:53 48.74312 -3.14757 37021 ft 436 kts 202°
2026-05-04 12:53 48.68711 -3.18296 37019 ft 436 kts 202°
2026-05-04 12:54 48.63113 -3.21813 37017 ft 436 kts 202°
2026-05-04 12:54 48.57545 -3.25308 37019 ft 436 kts 202°
2026-05-04 12:55 48.51943 -3.28831 37009 ft 436 kts 202°
2026-05-04 12:55 48.46331 -3.32352 37011 ft 437 kts 202°
2026-05-04 12:56 48.40719 -3.35852 37005 ft 437 kts 202°
2026-05-04 12:56 48.35142 -3.39326 37008 ft 437 kts 202°
2026-05-04 12:57 48.29533 -3.42812 37000 ft 436 kts 202°
2026-05-04 12:57 48.23922 -3.46303 36998 ft 436 kts 202°
2026-05-04 12:58 48.18307 -3.49789 37004 ft 436 kts 202°
2026-05-04 12:58 48.12696 -3.53246 36997 ft 437 kts 202°
2026-05-04 12:59 48.07073 -3.56701 37003 ft 436 kts 202°
2026-05-04 12:59 48.01498 -3.60114 37008 ft 436 kts 202°
2026-05-04 13:00 47.95881 -3.63552 37006 ft 436 kts 202°
2026-05-04 13:00 47.90264 -3.66990 37011 ft 436 kts 202°
2026-05-04 13:01 47.84645 -3.70431 37015 ft 436 kts 202°
2026-05-04 13:01 47.79027 -3.73852 37012 ft 437 kts 202°
2026-05-04 13:02 47.73435 -3.77240 37006 ft 437 kts 201°
2026-05-04 13:02 47.67807 -3.80637 37013 ft 437 kts 201°
2026-05-04 13:03 47.62179 -3.84040 37019 ft 437 kts 201°
2026-05-04 13:03 47.56558 -3.87434 37015 ft 437 kts 201°
2026-05-04 13:04 47.50922 -3.90819 37015 ft 437 kts 201°
2026-05-04 13:04 47.45323 -3.94174 37014 ft 437 kts 201°
2026-05-04 13:05 47.39684 -3.97549 37018 ft 437 kts 201°
2026-05-04 13:05 47.34043 -4.00922 37015 ft 437 kts 201°
2026-05-04 13:06 47.28406 -4.04275 37015 ft 437 kts 201°
2026-05-04 13:06 47.22766 -4.07619 37019 ft 437 kts 201°
2026-05-04 13:07 47.17163 -4.10953 37020 ft 438 kts 201°
2026-05-04 13:07 47.11510 -4.14303 37021 ft 437 kts 201°
2026-05-04 13:08 47.05872 -4.17630 37018 ft 437 kts 201°
2026-05-04 13:08 47.00218 -4.20951 37018 ft 437 kts 201°
2026-05-04 13:09 46.94571 -4.24275 37018 ft 437 kts 201°
2026-05-04 13:09 46.88963 -4.27565 37023 ft 438 kts 201°
2026-05-04 13:10 46.83305 -4.30865 37020 ft 438 kts 201°
2026-05-04 13:10 46.77650 -4.34170 37025 ft 438 kts 201°
2026-05-04 13:11 46.71991 -4.37479 37025 ft 438 kts 201°
2026-05-04 13:11 46.66371 -4.40744 37027 ft 438 kts 201°
2026-05-04 13:12 46.60717 -4.44015 37024 ft 437 kts 201°
2026-05-04 13:12 46.55064 -4.47281 37022 ft 437 kts 201°
2026-05-04 13:13 46.49411 -4.50538 37024 ft 438 kts 201°
2026-05-04 13:13 46.43748 -4.53795 37025 ft 437 kts 201°
2026-05-04 13:14 46.38123 -4.57031 37022 ft 438 kts 201°
2026-05-04 13:14 46.32464 -4.60286 37022 ft 438 kts 201°
2026-05-04 13:15 46.26801 -4.63525 37022 ft 437 kts 201°
2026-05-04 13:15 46.21150 -4.66744 37023 ft 437 kts 201°
2026-05-04 13:16 46.15523 -4.69945 37022 ft 437 kts 201°
2026-05-04 13:16 46.09861 -4.73161 37026 ft 438 kts 201°
2026-05-04 13:17 46.04192 -4.76377 37025 ft 438 kts 201°
2026-05-04 13:17 45.98528 -4.79581 37023 ft 438 kts 201°
2026-05-04 13:18 45.92897 -4.82762 37021 ft 437 kts 201°
2026-05-04 13:18 45.87240 -4.85950 37022 ft 437 kts 201°
2026-05-04 13:19 45.81578 -4.89129 37020 ft 437 kts 201°
2026-05-04 13:19 45.75915 -4.92300 37022 ft 437 kts 201°
2026-05-04 13:20 45.70255 -4.95473 37020 ft 437 kts 201°
2026-05-04 13:20 45.64640 -4.98612 37020 ft 436 kts 201°
2026-05-04 13:21 45.58984 -5.01771 37017 ft 436 kts 201°
2026-05-04 13:21 45.53331 -5.04916 37017 ft 436 kts 201°
2026-05-04 13:22 45.47666 -5.08053 37019 ft 436 kts 201°
2026-05-04 13:22 45.42047 -5.11163 37014 ft 436 kts 202°
2026-05-04 13:23 45.36387 -5.14291 37017 ft 437 kts 201°
2026-05-04 13:23 45.30722 -5.17409 37019 ft 437 kts 201°
2026-05-04 13:24 45.25045 -5.20521 37022 ft 437 kts 202°
2026-05-04 13:24 45.19375 -5.23625 37022 ft 437 kts 202°
2026-05-04 13:25 45.10909 -5.28264 37027 ft 437 kts 202°
2026-05-04 13:25 45.05229 -5.31368 37029 ft 437 kts 202°
2026-05-04 13:26 44.99552 -5.34465 37029 ft 437 kts 202°
2026-05-04 13:26 44.93875 -5.37557 37031 ft 437 kts 202°
2026-05-04 13:27 44.88240 -5.40610 37028 ft 437 kts 202°
2026-05-04 13:27 44.82560 -5.43678 37028 ft 437 kts 202°
2026-05-04 13:28 44.76887 -5.46747 37029 ft 437 kts 202°
2026-05-04 13:28 44.71215 -5.49810 37027 ft 437 kts 202°
2026-05-04 13:29 44.65577 -5.52839 37028 ft 437 kts 202°
2026-05-04 13:29 44.59904 -5.55893 37032 ft 437 kts 203°
2026-05-04 13:30 44.54321 -5.59250 37029 ft 436 kts 205°
2026-05-04 13:30 44.48794 -5.62786 37036 ft 436 kts 206°
2026-05-04 13:31 44.43259 -5.66286 37034 ft 436 kts 205°
2026-05-04 13:31 44.37700 -5.69703 37034 ft 437 kts 205°
2026-05-04 13:32 44.32174 -5.73066 37030 ft 437 kts 205°
2026-05-04 13:32 44.26610 -5.76470 37035 ft 436 kts 205°
2026-05-04 13:33 44.21051 -5.79868 37032 ft 436 kts 205°
2026-05-04 13:33 44.15528 -5.83237 37026 ft 437 kts 205°
2026-05-04 13:34 44.09957 -5.86628 37037 ft 437 kts 205°
2026-05-04 13:34 44.04386 -5.90016 37031 ft 437 kts 205°
2026-05-04 13:35 43.96022 -5.95081 37041 ft 437 kts 205°
2026-05-04 13:36 43.90442 -5.98465 37038 ft 437 kts 205°
2026-05-04 13:36 43.84900 -6.01810 37039 ft 438 kts 205°
2026-05-04 13:37 43.79307 -6.05171 37043 ft 438 kts 205°
2026-05-04 13:37 43.73720 -6.08527 37047 ft 438 kts 205°
2026-05-04 13:38 43.68132 -6.11877 37044 ft 438 kts 205°
2026-05-04 13:38 43.62544 -6.15226 37043 ft 438 kts 205°
2026-05-04 13:39 43.56995 -6.18539 37042 ft 438 kts 205°
2026-05-04 13:39 43.51406 -6.21860 37041 ft 438 kts 205°
2026-05-04 13:40 43.45812 -6.25190 37048 ft 437 kts 205°
2026-05-04 13:40 43.40224 -6.28509 37046 ft 438 kts 206°
2026-05-04 13:41 43.34675 -6.31798 37043 ft 438 kts 206°
2026-05-04 13:41 43.29081 -6.35105 37042 ft 437 kts 206°
2026-05-04 13:42 43.20687 -6.40049 37034 ft 438 kts 206°
2026-05-04 13:42 43.15091 -6.43340 37034 ft 438 kts 206°
2026-05-04 13:43 43.09529 -6.46612 37024 ft 438 kts 206°
2026-05-04 13:43 43.03937 -6.49896 37022 ft 438 kts 206°
2026-05-04 13:44 42.98341 -6.53158 37016 ft 438 kts 206°
2026-05-04 13:44 42.92733 -6.56416 37016 ft 438 kts 206°
2026-05-04 13:45 42.87132 -6.59678 37009 ft 437 kts 206°
2026-05-04 13:45 42.81577 -6.62919 37012 ft 437 kts 206°
2026-05-04 13:46 42.75985 -6.66162 37011 ft 437 kts 206°
2026-05-04 13:46 42.70384 -6.69405 37013 ft 437 kts 206°
2026-05-04 13:47 42.64790 -6.72644 37014 ft 437 kts 206°
2026-05-04 13:47 42.59231 -6.75851 37018 ft 437 kts 206°
2026-05-04 13:48 42.53637 -6.79066 37016 ft 437 kts 206°
2026-05-04 13:48 42.48044 -6.82279 37018 ft 437 kts 206°
2026-05-04 13:49 42.42445 -6.85489 37016 ft 437 kts 206°
2026-05-04 13:49 42.36883 -6.88673 37015 ft 437 kts 206°
2026-05-04 13:50 42.31288 -6.91866 37014 ft 437 kts 207°
2026-05-04 13:50 42.25690 -6.95057 37014 ft 436 kts 207°
2026-05-04 13:51 42.20101 -6.98234 37014 ft 436 kts 207°
2026-05-04 13:51 42.14511 -7.01416 37017 ft 436 kts 207°
2026-05-04 13:52 42.06169 -7.06131 37014 ft 435 kts 207°
2026-05-04 13:53 42.00592 -7.09278 37013 ft 435 kts 207°
2026-05-04 13:53 41.95263 -7.13014 37012 ft 431 kts 213°
2026-05-04 13:54 41.87437 -7.18968 37017 ft 431 kts 213°
2026-05-04 13:55 41.79644 -7.24875 37018 ft 430 kts 213°
2026-05-04 13:55 41.71813 -7.30739 37017 ft 430 kts 213°
2026-05-04 13:56 41.66586 -7.34653 37017 ft 430 kts 213°
2026-05-04 13:57 41.58765 -7.40517 37018 ft 429 kts 213°
2026-05-04 13:58 41.48360 -7.48311 37022 ft 428 kts 214°
2026-05-04 13:58 41.40618 -7.54155 37023 ft 428 kts 214°
2026-05-04 13:59 41.35427 -7.58043 37031 ft 427 kts 214°
2026-05-04 14:00 41.27664 -7.63852 37038 ft 427 kts 214°
2026-05-04 14:00 41.19901 -7.69655 37051 ft 426 kts 214°
2026-05-04 14:01 41.14729 -7.73507 37048 ft 426 kts 214°
2026-05-04 14:02 41.07015 -7.79233 37036 ft 426 kts 214°
2026-05-04 14:02 41.01848 -7.83063 37046 ft 425 kts 214°
2026-05-04 14:03 40.96674 -7.86890 37060 ft 425 kts 214°
2026-05-04 14:03 40.91508 -7.90706 37052 ft 425 kts 214°
2026-05-04 14:04 40.83756 -7.96413 37050 ft 425 kts 214°
2026-05-04 14:04 40.78581 -8.00212 37060 ft 425 kts 214°
2026-05-04 14:05 40.70863 -8.05876 37060 ft 425 kts 214°
2026-05-04 14:06 40.65693 -8.09663 37059 ft 425 kts 214°
2026-05-04 14:06 40.60523 -8.13441 37064 ft 425 kts 214°
2026-05-04 14:07 40.55349 -8.17222 37060 ft 425 kts 214°
2026-05-04 14:07 40.50175 -8.20994 37066 ft 425 kts 214°
2026-05-04 14:08 40.45000 -8.24749 37071 ft 425 kts 214°
2026-05-04 14:08 40.39855 -8.28469 37069 ft 425 kts 214°
2026-05-04 14:09 40.32089 -8.34084 37075 ft 425 kts 214°
2026-05-04 14:10 40.24324 -8.39704 37085 ft 425 kts 214°
2026-05-04 14:10 40.19146 -8.43438 37083 ft 425 kts 214°
2026-05-04 14:11 40.13963 -8.47170 37083 ft 425 kts 214°
2026-05-04 14:11 40.06219 -8.52714 37082 ft 425 kts 214°
2026-05-04 14:12 40.01040 -8.56418 37086 ft 425 kts 214°
2026-05-04 14:13 39.93267 -8.61968 37106 ft 423 kts 214°
2026-05-04 14:13 39.88110 -8.65645 37121 ft 421 kts 214°
2026-05-04 14:14 39.82980 -8.69301 37124 ft 420 kts 214°
2026-05-04 14:14 39.75336 -8.74728 37119 ft 419 kts 214°
2026-05-04 14:15 39.65096 -8.81972 36037 ft 419 kts 215°
2026-05-04 14:16 39.59956 -8.85608 34280 ft 422 kts 216°
2026-05-04 14:16 39.57368 -8.87432 33347 ft 422 kts 216°
2026-05-04 14:17 39.52221 -8.91045 31743 ft 417 kts 216°
2026-05-04 14:17 39.49689 -8.92820 31042 ft 412 kts 216°
2026-05-04 14:17 39.44723 -8.96300 29293 ft 400 kts 216°
2026-05-04 14:18 39.42295 -8.98004 28350 ft 395 kts 215°
2026-05-04 14:18 39.37566 -9.01325 26585 ft 384 kts 215°
2026-05-04 14:19 39.32918 -9.04581 25269 ft 378 kts 214°
2026-05-04 14:19 39.30601 -9.06202 25101 ft 379 kts 214°
2026-05-04 14:19 39.28281 -9.07823 25092 ft 379 kts 214°
2026-05-04 14:19 39.25966 -9.09441 24911 ft 378 kts 214°
2026-05-04 14:20 39.23656 -9.11049 24467 ft 376 kts 214°
2026-05-04 14:20 39.21364 -9.12644 24059 ft 374 kts 214°
2026-05-04 14:20 39.19090 -9.14226 23416 ft 368 kts 214°
2026-05-04 14:21 39.14631 -9.17330 21662 ft 360 kts 214°
2026-05-04 14:21 39.12446 -9.18850 20840 ft 356 kts 214°
2026-05-04 14:21 39.10272 -9.20361 20039 ft 352 kts 213°
2026-05-04 14:21 39.08153 -9.21830 19268 ft 349 kts 213°
2026-05-04 14:22 39.06033 -9.23299 18501 ft 345 kts 213°
2026-05-04 14:22 39.03928 -9.24759 17659 ft 342 kts 213°
2026-05-04 14:22 39.01847 -9.26201 16799 ft 339 kts 213°
2026-05-04 14:22 38.99778 -9.27634 16097 ft 333 kts 213°
2026-05-04 14:23 38.95759 -9.30409 14725 ft 325 kts 213°
2026-05-04 14:23 38.93764 -9.31789 13880 ft 327 kts 213°
2026-05-04 14:23 38.91764 -9.33175 13073 ft 327 kts 212°
2026-05-04 14:24 38.89763 -9.34560 12413 ft 325 kts 212°
2026-05-04 14:24 38.87775 -9.35934 11779 ft 323 kts 212°
2026-05-04 14:24 38.85815 -9.37286 11379 ft 319 kts 212°
2026-05-04 14:24 38.83867 -9.38630 11131 ft 322 kts 211°
2026-05-04 14:25 38.81890 -9.39988 10886 ft 322 kts 211°
2026-05-04 14:25 38.77959 -9.42682 10159 ft 319 kts 211°
2026-05-04 14:25 38.76023 -9.44008 9970 ft 310 kts 211°
2026-05-04 14:26 38.74171 -9.45273 9787 ft 293 kts 211°
2026-05-04 14:26 38.72394 -9.46487 9377 ft 287 kts 211°
2026-05-04 14:26 38.70637 -9.47692 8895 ft 285 kts 211°
2026-05-04 14:26 38.68901 -9.48883 8376 ft 283 kts 211°
2026-05-04 14:27 38.67176 -9.50068 8104 ft 281 kts 211°
2026-05-04 14:27 38.65479 -9.51233 7667 ft 280 kts 211°
2026-05-04 14:27 38.63654 -9.52088 7156 ft 282 kts 190°
2026-05-04 14:27 38.61703 -9.51976 6671 ft 284 kts 165°
2026-05-04 14:28 38.59955 -9.50855 6176 ft 282 kts 140°
2026-05-04 14:28 38.58730 -9.48935 5656 ft 279 kts 114°
2026-05-04 14:28 38.58235 -9.46588 5242 ft 270 kts 90°
2026-05-04 14:28 38.58306 -9.44232 4844 ft 264 kts 83°
2026-05-04 14:29 38.58525 -9.39607 4048 ft 256 kts 83°
2026-05-04 14:29 38.58731 -9.35048 4008 ft 255 kts 83°
2026-05-04 14:30 38.58833 -9.32793 4010 ft 254 kts 83°
2026-05-04 14:30 38.58932 -9.30535 4009 ft 254 kts 83°
2026-05-04 14:30 38.59118 -9.26212 4006 ft 232 kts 83°
2026-05-04 14:31 38.59207 -9.24226 4007 ft 217 kts 82°
2026-05-04 14:31 38.60517 -9.21076 4007 ft 202 kts 30°
2026-05-04 14:32 38.63070 -9.20287 3719 ft 186 kts 345°
2026-05-04 14:32 38.64322 -9.20481 3565 ft 179 kts
2026-05-04 14:32 38.65538 -9.20161 3192 ft 177 kts 12°
2026-05-04 14:32 38.66692 -9.19650 2773 ft 177 kts 17°
2026-05-04 14:33 38.67841 -9.19072 2357 ft 177 kts 16°
2026-05-04 14:33 38.68984 -9.18477 2049 ft 178 kts 17°
2026-05-04 14:33 38.70083 -9.17891 1810 ft 170 kts 17°
2026-05-04 14:33 38.71166 -9.17314 1567 ft 165 kts 17°
2026-05-04 14:34 38.72166 -9.16777 1378 ft 147 kts 16°
2026-05-04 14:34 38.73088 -9.16286 1163 ft 140 kts 18°
2026-05-04 14:34 38.73982 -9.15810 953 ft 138 kts 19°
2026-05-04 14:34 38.74862 -9.15337 746 ft 136 kts 17°
2026-05-04 14:35 38.75731 -9.14856 578 ft 137 kts 18°
2026-05-04 14:35 38.76614 -9.14405 401 ft 136 kts 18°
2026-05-04 14:35 38.77434 -9.13973 365 ft 111 kts 19°
2026-05-04 14:35 38.77980 -9.13677 365 ft 62 kts 23°
2026-05-04 14:36 38.78250 -9.13510 367 ft 34 kts 37°
2026-05-04 14:36 38.78364 -9.13365 363 ft 13 kts 57°
2026-05-04 14:36 38.78370 -9.13278 364 ft 9 kts 138°
2026-05-04 14:36 38.78298 -9.13275 363 ft 12 kts 200°
2026-05-04 14:37 38.78240 -9.13307 362 ft 9 kts 202°
2026-05-04 14:37 38.78173 -9.13342 359 ft 12 kts 201°
2026-05-04 14:37 38.78091 -9.13386 360 ft 14 kts 202°
2026-05-04 14:37 38.77994 -9.13409 355 ft 16 kts 167°
2026-05-04 14:38 38.77865 -9.13374 349 ft 19 kts 168°
2026-05-04 14:38 38.77758 -9.13345 346 ft 17 kts 170°
2026-05-04 14:38 38.77636 -9.13318 334 ft 13 kts 176°
2026-05-04 14:38 38.77593 -9.13300 333 ft 4 kts 87°
2026-05-04 14:39 38.77602 -9.13248 336 ft 8 kts 79°
2026-05-04 14:39 38.77609 -9.13203 336 ft 4 kts 79°
2026-05-04 14:39 38.77611 -9.13186 333 ft 0 kts 78°